Weather History for Omaha Millard, NE

Change the Weather History Date:

Tuesday, February 26, 2013

  Actual Average (KOMA) Record (KOMA)
Temperature  
Mean Temperature 29 °F 32 °F  
Max Temperature 32 °F 42 °F 78 °F (1896)
Min Temperature 26 °F 22 °F -11 °F (1897)
Degree Days  
Heating Degree Days 36 33  
Month to date heating degree days 967  
Since 1 July heating degree days 4732  
Cooling Degree Days 0 0  
Month to date cooling degree days 0  
Year to date cooling degree days 0  
Moisture  
Dew Point 29 °F    
Average Humidity 98    
Maximum Humidity 100    
Minimum Humidity 93    
Precipitation  
Precipitation 0.00 in 0.04 in 0.58 in (1915)
Month to date precipitation 0.77  
Year to date precipitation 1.49  
Snow  
Snow 0.00 in 0.10 in - ()
Month to date snowfall 5.7  
Since 1 July snowfall 20.8  
Snow Depth -    
Sea Level Pressure  
Sea Level Pressure 29.85 in    
Wind  
Wind Speed 8 mph (NNW)    
Max Wind Speed 13 mph    
Max Gust Speed 21 mph    
Visibility 4 miles    
Events Snow    
T = Trace of Precipitation, MM = Missing Value Source: NWS Daily Summary

Daily Weather History Graph

Daily Weather History Graph

Search for Another Location

Airport:

Trip Planner

Search our weather history database for the weather conditions in past years. The results will help you decide how hot, cold, wet, or windy it might be!

Date:

Astronomy

Feb. 26, 2013 Rise Set
Actual Time 7:02 AM CST 6:12 PM CST
Civil Twilight 6:35 AM CST 6:39 PM CST
Nautical Twilight 6:03 AM CST 7:11 PM CST
Astronomical Twilight 5:31 AM CST 7:43 PM CST
Moon 7:31 PM CST (2/26) 7:05 AM CST (2/26)
Length of Visible Light 12h 04m
Length of Day
11h 09m
Full, 99% of the Moon is Illuminated
Feb 26
Full
Mar 4
Last Quarter
Mar 11
New
Mar 19
First Quarter
Mar 27
Full

Hourly Weather History & Observations

Time (CST) Temp. Windchill Dew Point Humidity Pressure Visibility Wind Dir Wind Speed Gust Speed Precip Events Conditions
12:15 AM 27.5 °F 21.1 °F 27.5 °F 100% 29.92 in 3.0 mi NNW 5.8 mph - N/A   Overcast
12:35 AM 27.3 °F 19.9 °F 27.3 °F 100% 29.91 in 2.5 mi North 6.9 mph - N/A   Overcast
12:55 AM 27.1 °F 21.8 °F 27.1 °F 100% 29.90 in 2.5 mi North 4.6 mph - N/A   Overcast
1:15 AM 26.8 °F 18.5 °F 26.8 °F 100% 29.89 in 3.0 mi North 8.1 mph - N/A   Overcast
1:35 AM 26.6 °F 18.2 °F 26.6 °F 100% 29.88 in 3.0 mi North 8.1 mph - N/A   Overcast
1:55 AM 26.6 °F 18.2 °F 26.6 °F 100% 29.88 in 3.0 mi North 8.1 mph 16.1 mph N/A   Overcast
2:15 AM 26.4 °F 18.9 °F 26.4 °F 100% 29.88 in 3.0 mi North 6.9 mph 16.1 mph N/A   Overcast
2:35 AM 26.2 °F 17.8 °F 26.2 °F 100% 29.88 in 2.5 mi North 8.1 mph - N/A   Overcast
2:55 AM 26.2 °F 17.8 °F 26.2 °F 100% 29.87 in 2.5 mi North 8.1 mph - N/A   Overcast
3:15 AM 26.4 °F 18.0 °F 26.4 °F 100% 29.86 in 3.0 mi North 8.1 mph - N/A   Overcast
3:35 AM 26.6 °F 19.1 °F 26.6 °F 100% 29.85 in 3.0 mi North 6.9 mph - N/A   Overcast
3:55 AM 26.6 °F 20.0 °F 26.6 °F 100% 29.86 in 3.0 mi NNW 5.8 mph - N/A   Overcast
4:15 AM 27.0 °F 18.7 °F 27.0 °F 100% 29.85 in 3.0 mi NNW 8.1 mph - N/A   Overcast
4:35 AM 26.6 °F 19.1 °F 26.6 °F 100% 29.85 in 3.0 mi NNW 6.9 mph 16.1 mph N/A   Overcast
4:55 AM 26.6 °F 18.2 °F 26.6 °F 100% 29.86 in 3.0 mi North 8.1 mph - N/A   Overcast
5:15 AM 26.8 °F 19.3 °F 26.8 °F 100% 29.85 in 3.0 mi NNW 6.9 mph - N/A   Overcast
5:35 AM 27.1 °F 20.7 °F 27.1 °F 100% 29.85 in 3.0 mi NNW 5.8 mph - N/A   Overcast
5:55 AM 27.1 °F 20.7 °F 27.1 °F 100% 29.84 in 3.0 mi NNW 5.8 mph - N/A   Overcast
6:15 AM 27.1 °F 19.7 °F 27.1 °F 100% 29.84 in 3.0 mi NNW 6.9 mph - N/A   Overcast
6:35 AM 27.1 °F 18.2 °F 27.1 °F 100% 29.84 in 2.5 mi NNW 9.2 mph - N/A   Overcast
6:55 AM 27.1 °F 21.8 °F 27.1 °F 100% 29.84 in 2.5 mi NNW 4.6 mph - N/A   Overcast
7:15 AM 27.5 °F 21.1 °F 27.5 °F 100% 29.84 in 2.5 mi NNW 5.8 mph - N/A   Overcast
7:35 AM 28.0 °F 21.7 °F 28.0 °F 100% 29.84 in 2.0 mi North 5.8 mph - N/A   Overcast
7:55 AM 28.2 °F 21.0 °F 28.2 °F 100% 29.84 in 2.5 mi North 6.9 mph - N/A   Overcast
8:15 AM 28.2 °F 19.5 °F 28.2 °F 100% 29.85 in 2.5 mi North 9.2 mph 19.6 mph N/A   Overcast
8:35 AM 28.4 °F 21.2 °F 28.4 °F 100% 29.85 in 3.0 mi North 6.9 mph - N/A   Overcast
8:55 AM 28.4 °F 18.5 °F 28.4 °F 100% 29.84 in 3.0 mi NNW 11.5 mph - N/A   Overcast
9:15 AM 28.4 °F 21.2 °F 28.4 °F 100% 29.85 in 3.0 mi NNW 6.9 mph 18.4 mph N/A   Overcast
9:35 AM 28.4 °F 20.4 °F 28.4 °F 100% 29.85 in 3.0 mi NNW 8.1 mph - N/A   Overcast
9:55 AM 28.2 °F 19.5 °F 28.2 °F 100% 29.85 in 3.0 mi NNW 9.2 mph 16.1 mph N/A   Overcast
10:15 AM 28.0 °F 18.1 °F 28.0 °F 100% 29.85 in 3.0 mi NNW 11.5 mph - N/A   Overcast
10:35 AM 27.5 °F 18.6 °F 27.5 °F 100% 29.85 in 3.0 mi NNW 9.2 mph - N/A   Overcast
10:55 AM 27.5 °F 18.0 °F 27.5 °F 100% 29.85 in 3.0 mi NNW 10.4 mph 19.6 mph N/A   Overcast
11:15 AM 28.0 °F 20.8 °F 27.7 °F 99% 29.85 in 2.5 mi NNW 6.9 mph 20.7 mph N/A Snow Light Snow
11:35 AM 28.4 °F 19.1 °F 28.0 °F 99% 29.84 in 3.0 mi NNW 10.4 mph 17.3 mph N/A   Overcast
11:55 AM 29.3 °F 20.8 °F 28.8 °F 98% 29.84 in 3.0 mi NNW 9.2 mph 17.3 mph N/A   Overcast
12:15 PM 30.0 °F 22.4 °F 28.9 °F 96% 29.84 in 4.0 mi NNW 8.1 mph - N/A   Overcast
12:35 PM 29.8 °F 21.5 °F 28.9 °F 96% 29.83 in 4.0 mi NNW 9.2 mph 16.1 mph N/A   Overcast
12:55 PM 30.2 °F 21.3 °F 29.3 °F 96% 29.82 in 4.0 mi North 10.4 mph 18.4 mph N/A   Overcast
1:15 PM 30.2 °F 22.6 °F 29.7 °F 98% 29.81 in 2.5 mi NNW 8.1 mph - N/A Snow Light Snow
1:35 PM 30.7 °F 24.1 °F 30.4 °F 99% 29.80 in 1.8 mi NNW 6.9 mph - N/A Snow Light Snow
1:55 PM 31.1 °F 22.4 °F 30.9 °F 99% 29.79 in 1.8 mi NNW 10.4 mph - N/A Snow Light Snow
2:15 PM 31.1 °F 22.4 °F 31.1 °F 100% 29.78 in 2.5 mi NNW 10.4 mph 16.1 mph N/A Snow Light Snow
2:35 PM 31.6 °F 23.1 °F 31.1 °F 98% 29.78 in 3.0 mi NNW 10.4 mph 18.4 mph N/A Snow Light Snow
2:55 PM 32.0 °F 23.6 °F 31.6 °F 99% 29.79 in 3.0 mi NNW 10.4 mph 17.3 mph N/A Snow Light Snow
3:15 PM 32.0 °F 23.6 °F 31.3 °F 97% 29.79 in 3.0 mi NNW 10.4 mph 18.4 mph N/A Snow Light Snow
3:35 PM 32.0 °F 24.2 °F 31.5 °F 98% 29.80 in 3.0 mi NNW 9.2 mph 17.3 mph N/A Snow Light Snow
3:55 PM 32.0 °F 22.5 °F 31.6 °F 99% 29.80 in 4.0 mi NNW 12.7 mph - N/A Snow Light Snow
4:15 PM 32.2 °F 22.7 °F 31.5 °F 97% 29.81 in 4.0 mi NNW 12.7 mph 18.4 mph N/A   Overcast
4:35 PM 32.9 °F 24.7 °F 31.5 °F 94% 29.81 in 4.0 mi NNW 10.4 mph 16.1 mph N/A   Overcast
4:55 PM 32.9 °F 26.7 °F 31.1 °F 93% 29.81 in 4.0 mi NNW 6.9 mph 19.6 mph N/A   Overcast
5:15 PM 32.9 °F 25.3 °F 31.1 °F 93% 29.82 in 4.0 mi NNW 9.2 mph 17.3 mph N/A   Mostly Cloudy
5:35 PM 32.9 °F 25.3 °F 31.3 °F 94% 29.82 in 4.0 mi North 9.2 mph - N/A   Overcast
5:55 PM 32.9 °F 24.7 °F 31.3 °F 94% 29.83 in 5.0 mi NNW 10.4 mph 16.1 mph N/A   Overcast
6:15 PM 32.9 °F 24.1 °F 31.1 °F 93% 29.85 in 5.0 mi NNW 11.5 mph 18.4 mph N/A   Overcast
6:35 PM 32.9 °F 24.1 °F 31.3 °F 94% 29.86 in 7.0 mi NNW 11.5 mph 17.3 mph N/A   Overcast
6:55 PM 32.5 °F 25.5 °F 31.1 °F 94% 29.86 in 7.0 mi NNW 8.1 mph 17.3 mph N/A   Overcast
7:15 PM 32.4 °F 23.5 °F 30.9 °F 94% 29.86 in 7.0 mi NNW 11.5 mph 17.3 mph N/A   Mostly Cloudy
7:35 PM 32.0 °F 26.4 °F 30.9 °F 96% 29.87 in 7.0 mi NNW 5.8 mph 17.3 mph N/A   Overcast
7:55 PM 32.0 °F 23.0 °F 30.7 °F 95% 29.87 in 5.0 mi NNW 11.5 mph 20.7 mph N/A   Overcast
8:15 PM 32.0 °F 24.2 °F 30.2 °F 93% 29.88 in 7.0 mi NNW 9.2 mph 17.3 mph N/A   Overcast
8:35 PM 32.0 °F 25.6 °F 30.2 °F 93% 29.88 in 7.0 mi NNW 6.9 mph - N/A   Overcast
8:55 PM 31.8 °F 22.3 °F 30.0 °F 93% 29.89 in 7.0 mi NNW 12.7 mph 17.3 mph N/A   Overcast
9:15 PM 31.8 °F 22.3 °F 30.0 °F 93% 29.90 in 7.0 mi NNW 12.7 mph 17.3 mph N/A   Overcast
9:35 PM 31.5 °F 24.2 °F 29.7 °F 93% 29.90 in 7.0 mi NNW 8.1 mph 18.4 mph N/A   Overcast
9:55 PM 31.1 °F 24.5 °F 29.3 °F 93% 29.91 in 7.0 mi NNW 6.9 mph 17.3 mph N/A   Overcast
10:15 PM 30.9 °F 25.2 °F 29.3 °F 94% 29.91 in 7.0 mi NNW 5.8 mph - N/A   Overcast
10:55 PM 30.6 °F 21.8 °F 28.8 °F 93% 29.91 in 7.0 mi NNW 10.4 mph 16.1 mph N/A   Overcast
11:15 PM 30.2 °F 21.9 °F 28.4 °F 93% 29.91 in 7.0 mi NNW 9.2 mph - N/A   Mostly Cloudy
11:35 PM 29.8 °F 21.5 °F 28.4 °F 94% 29.91 in 7.0 mi NW 9.2 mph 17.3 mph N/A   Mostly Cloudy
11:55 PM 29.7 °F 21.3 °F 27.9 °F 93% 29.91 in 7.0 mi NNW 9.2 mph 19.6 mph N/A   Overcast